Overview Statistics Trail Chart Weather Telemetry Raw packets
 

This is the latest recevied weather packets stored in our database for station/object KC1TEM-13. If no packets are shown the sender has not sent any weather packets the latest 10 day(s).

<< 100 101 102 103 104 105 106 >>
Time Temp. Humidity Pressure Rain* Wind** Luminosity Snow
1787866452 26.11° C 57% 1016.2 hPa 0 mm - 69 W/m² -
1787866151 26.11° C 57% 1016 hPa 0 mm - 88 W/m² -
1787865847 26.67° C 58% 1016.4 hPa 0 mm - 83 W/m² -
1787865542 26.67° C 58% 1016.1 hPa 0 mm - 72 W/m² -
1787865236 26.67° C 58% 1016.2 hPa 0 mm - 79 W/m² -
1787864933 26.67° C 61% 1016.2 hPa 0 mm - 85 W/m² -
1787864628 26.67° C 60% 1016.1 hPa 0 mm - 104 W/m² -
1787864328 26.67° C 61% 1016.2 hPa 0 mm - 107 W/m² -
1787864026 26.67° C 60% 1016.2 hPa 0 mm - 66 W/m² -
1787863721 27.22° C 59% 1016.3 hPa 0 mm - 157 W/m² -
1787863420 27.22° C 59% 1016.3 hPa 0 mm - 118 W/m² -
1787863116 27.22° C 59% 1016.3 hPa 0 mm - 141 W/m² -
1787862812 27.22° C 59% 1016.5 hPa 0 mm - 102 W/m² -
1787862511 27.78° C 58% 1016.6 hPa 0 mm - 136 W/m² -
1787862206 27.78° C 58% 1016.5 hPa 0 mm - 146 W/m² -
1787861901 27.78° C 56% 1016.5 hPa 0 mm - 169 W/m² -
1787861601 27.78° C 57% 1016.4 hPa 0 mm - 160 W/m² -
1787861299 28.33° C 56% 1016.6 hPa 0 mm - 161 W/m² -
1787860994 28.33° C 57% 1016.6 hPa 0 mm - 214 W/m² -
1787860694 28.33° C 57% 1016.6 hPa 0 mm - 128 W/m² -
1787860389 28.33° C 57% 1016.8 hPa 0 mm - 541 W/m² -
1787860089 28.33° C 56% 1016.6 hPa 0 mm - 193 W/m² -
1787859785 27.78° C 60% 1016.6 hPa 0 mm - 308 W/m² -
1787859485 27.22° C 62% 1016.4 hPa 0 mm - 179 W/m² -
1787859184 26.67° C 64% 1016.9 hPa 0 mm - 237 W/m² -

* Rain latest hour (hover to see other rain measurements)
** Current wind speed in m/s (hover to see current wind gust speed)